Tracking 25709 objects as of 24-May-2022
HD Live streaming from Space Station
objects crossing your sky now

SPACEBEE-107

Track SPACEBEE-107 now!
10-day predictions


NORAD ID: 48894
Int'l Code: 2021-059R
Perigee: 519.8 km
Apogee: 532.5 km
Inclination: 97.6 °
Period: 95.0 minutes
Semi major axis: 6897 km
RCS: Unknown
Launch date: June 30, 2021
Source: United States (US)
Launch site: AIR FORCE EASTERN TEST RANGE (AFETR)
aabbcc
Your satellite tracking list
Your tracking list is empty




NASA's NSSDC Master Catalog

Two Line Element Set (TLE):
1 48894U 21059R   22143.33189973  .00015299  00000-0  80613-3 0  9992
2 48894  97.5532 273.2494 0009170 185.4328 174.6807 15.15651255 50133
Source of the keplerian elements: AFSPC